This demonstration page uses our WeatherBlox Daily Observations layout. Learn more.

Left ArrowRight Arrow

Hourly Observations for August 7, 2021

Temp ( °F °C ) Dew Point ( °F °C ) Humidity (%) Winds ( mph kmh ) Pressure ( in mb ) Visibility ( mi km ) Precip ( " mm )
12:50 am 00:50 Cloudy with Haze 73 23 41 5 31 31 Calm 29.84 1011 2 3 0.00 0.00
12:53 am 00:53 Cloudy with Haze 73 22.8 41 5 32 32 Calm 29.84 1011 2 3 0.00 0.00
1:15 am 01:15 Cloudy with Haze 75 23.9 43 6.1 32 32 N 3 6 29.84 1011 2 3 0.00 0.00
1:53 am 01:53 Cloudy with Haze 72 22.2 41 5 33 33 NNE 5 7 29.84 1011 2 3 0.00 0.00
2:53 am 02:53 Cloudy with Haze 71 21.7 44 6.7 38 38 N 3 6 29.83 1010 3 4 0.00 0.00
3:02 am 03:02 Cloudy with Haze 71 21.7 45 7.2 39 39 Calm 29.84 1010 3 5 0.00 0.00
3:53 am 03:53 Cloudy with Haze 70 21.1 43 6.1 38 38 N 3 6 29.83 1010 3 5 0.00 0.00
4:53 am 04:53 Cloudy with Haze 68 20 44 6.7 42 42 Calm 29.83 1010 4 6 0.00 0.00
5:53 am 05:53 Cloudy with Haze 66 18.9 44 6.7 45 45 Calm 29.83 1010 3 5 0.00 0.00
6:19 am 06:19 Cloudy with Haze 66 18.9 47 8.3 50 50 Calm 29.84 1011 2 3 0.00 0.00
6:53 am 06:53 Cloudy with Haze 66 18.9 45 7.2 47 47 Calm 29.83 1010 2 3 0.00 0.00
7:53 am 07:53 Cloudy with Haze 68 20 45 7.2 44 44 Calm 29.85 1011 3 4 0.00 0.00
8:19 am 08:19 Cloudy with Haze 70 21.1 46 7.8 42 42 Calm 29.86 1011 2 3 0.00 0.00
8:53 am 08:53 Cloudy with Haze 73 22.8 46 7.8 38 38 Calm 29.85 1011 3 4 0.00 0.00
9:53 am 09:53 Cloudy with Haze 80 26.7 44 6.7 28 28 Calm 29.84 1011 3 4 0.00 0.00
10:53 am 10:53 Cloudy with Haze 85 29.4 43 6.1 23 23 Calm 29.84 1010 3 4 0.00 0.00
11:53 am 11:53 Cloudy with Haze 89 31.7 43 6.1 20 20 Calm 29.82 1010 2 3 0.00 0.00
12:53 pm 12:53 Cloudy with Haze 92 33.3 43 6.1 18 18 SE 5 7 29.80 1009 3 4 0.00 0.00
1:53 pm 13:53 Cloudy with Haze 94 34.4 44 6.7 18 18 SW 6 9 29.78 1009 3 4 0.00 0.00
2:18 pm 14:18 Cloudy with Haze 95 35 44 6.7 17 17 SW 6 9 29.76 1008 3 5 0.00 0.00
2:29 pm 14:29 Cloudy with Haze 96 35.6 45 7.2 17 17 SSW 8 13 29.76 1008 3 4 0.00 0.00
2:53 pm 14:53 Cloudy with Haze 97 36.1 48 8.9 19 19 SSE 12 19 29.77 1008 3 4 0.00 0.00
3:53 pm 15:53 Cloudy with Haze 97 36.1 51 10.6 21 21 SSE 15 24 29.75 1008 3 5 0.00 0.00
4:03 pm 16:03 Cloudy with Haze 97 36.1 51 10.6 21 21 SSE 15 24 29.73 1007 3 5 0.00 0.00
4:53 pm 16:53 Cloudy with Haze 95 35 53 11.7 24 24 SSE 15 24 29.74 1007 3 5 0.00 0.00
5:13 pm 17:13 Cloudy with Haze 95 35 53 11.7 24 24 SSE 15 24 29.72 1007 3 4 0.00 0.00
5:53 pm 17:53 Cloudy with Haze 94 34.4 53 11.7 25 25 SSE 13 20 29.74 1007 3 4 0.00 0.00
6:53 pm 18:53 Cloudy with Haze 91 32.8 54 12.2 28 28 SSE 9 15 29.74 1007 2 3 0.00 0.00
7:00 pm 19:00 Cloudy with Haze 90 32.2 54 12.2 29 29 SSE 9 15 29.73 1007 2 3 0.00 0.00
7:24 pm 19:24 Cloudy with Haze 88 31.1 56 13.3 34 34 SSE 10 17 29.73 1007 2 3 0.00 0.00
7:53 pm 19:53 Cloudy with Haze 86 30 56 13.3 36 36 SE 7 11 29.75 1007 3 4 0.00 0.00
8:29 pm 20:29 Cloudy with Haze 85 29.4 55 12.8 36 36 Calm 29.74 1007 4 6 0.00 0.00
8:53 pm 20:53 Cloudy with Haze 84 28.9 54 12.2 36 36 Calm 29.76 1008 4 6 0.00 0.00
9:53 pm 21:53 Cloudy with Haze 82 27.8 54 12.2 38 38 Calm 29.77 1008 3 5 0.00 0.00
10:53 pm 22:53 Cloudy with Haze 80 26.7 53 11.7 39 39 Calm 29.78 1008 3 5 0.00 0.00
11:53 pm 23:53 Cloudy with Haze 76 24.4 52 11.1 43 43 Calm 29.78 1008 3 5 0.00 0.00

Powered by AerisWeather